Hourly Data Report for March 29, 2020

OTTAWA INTL A
ONTARIO
Current Station Operator: NAVCAN

45°19'00.000" N
75°40'00.000" W
114.90 m
6106001
71628
YOW

Download Data

Hourly Data (March 2020)
Hourly Data Report for March 29, 2020
TIME
LST
Temp Definition
°C
Dew Point Definition
°C
Rel Hum Definition
%
Precip. Amount Definition
mm

Wind Dir Definition
10's deg

Wind Spd Definition
km/h
Visibility Definition
km
Stn Press Definition
kPa
Hmdx Definition


Wind Chill Definition


Weather Definition


00:00 3.6 -4.9 54   7 23 24.1 100.45     LegendNANA
01:00 3.3 -4.9 55   7 18 24.1 100.36     Cloudy
02:00 3.3 -5.0 54   8 17 24.1 100.34     LegendNANA
03:00 3.5 -5.2 53   7 22 24.1 100.21     LegendNANA
04:00 3.8 -5.0 53   8 26 24.1 100.13     Cloudy
05:00 4.2 -3.8 56   8 23 24.1 100.10     LegendNANA
06:00 4.8 -2.9 58   7 27 24.1 100.06     LegendNANA
07:00 3.9 -0.9 71   8 24 24.1 100.03     Rain
08:00 2.8 0.7 86   7 30 16.1 99.94     Rain
09:00 3.1 1.7 91   8 35 24.1 99.75     Rain
10:00 3.5 2.6 94   7 30 9.7 99.66     Rain, Fog
11:00 3.3 2.6 95   7 27 9.7 99.52     Rain, Fog
12:00 3.7 3.1 96   7 35 6.4 99.32     Rain, Fog
13:00 4.1 3.5 97   7 30 6.4 99.18     Rain, Fog
14:00 4.4 4.0 97   7 25 9.7 99.05     Rain, Fog
15:00 4.7 4.3 97   7 27 6.4 99.05     Rain, Fog
16:00 5.0 4.6 97   7 21 9.7 99.09     Rain, Fog
17:00 4.9 4.6 97   6 25 9.7 99.09     Rain, Fog
18:00 4.8 4.5 98   7 36 8.1 98.97     Rain, Fog
19:00 4.5 4.2 98   7 18 9.7 99.24     Rain, Fog
20:00 4.4 4.1 98   9 22 6.4 99.25     Rain, Fog
21:00 4.2 3.8 98   6 15 6.4 99.32     Thunderstorms, Rain, Fog
22:00 4.5 4.1 98   8 17 8.1 99.29     Rain, Fog
23:00 6.1 5.8 98   14 13 12.9 99.29     LegendNANA

Notes on Data Quality.

Legend

  • E = Estimated
  • M = Missing
  • NA = Not Available*
  • [empty] = Indicates an unobserved value
Date modified: